Location: Saluda
(35.2377°N, 82.3468°W)
Time: 15:18:23
(UTC+00:00)

SR - Pass Details

Date: 06 October 2022
Orbit: 577 x 875 km, 66.7° (Epoch: 28 November)

Event Time Altitude Azimuth Distance (km) Brightness Sun altitude
Rises 00:42:46 0° 191° (S) 3,381 ? -20.2°
Reaches altitude 10° 00:45:14 10° 186° (S) 2,476 ? -20.7°
Maximum altitude 00:50:50 52° 112° (ESE) 1,072 ? -21.9°
Enters shadow 00:52:27 41° 65° (ENE) 1,256 ? -22.2°
Drops below altitude 10° 00:56:32 10° 37° (NE) 2,525 - -23.0°
Sets 00:59:04 0° 33° (NNE) 3,454 - -23.5°
